Location: ??????
(38.1303°N, 24.0039°E)
Time: 03:40:45
(UTC+00:00)

Alouette 2 Rocket - Pass Details

Date: 20 June 2021
Orbit: 501 x 2650 km, 79.8° (Epoch: 31 July)

Event Time Altitude Azimuth Distance (km) Brightness Sun altitude
Rises 01:38:08 0° 342° (NNW) 2,606 7.2 -13.7°
Reaches altitude 10° 01:40:07 10° 335° (NNW) 1,753 6.1 -13.4°
Maximum altitude 01:43:39 47° 261° (W) 778 3.7 -12.9°
Drops below altitude 10° 01:48:05 10° 188° (S) 2,210 5.9 -12.3°
Enters shadow 01:48:14 - 187° (S) 2,276 6.0 -12.2°
